Startpagina
METAR-TAF:

METAR-TAF

Vliegvelden :

Productieplatform

Euro, Nederland

breedte: 51-59-52N, lengte: 3-16-30E, hoogte: 18 m

Actueel weer

Dit bericht is 20 minuten geleden gemaakt, om 14:25 UTC
Wind 7 kt uit het oostnoordoosten
Temperatuur 3°C
Vochtigheid 60%
Druk 1018 hPa
Zicht 10 km of meer

METAR: EHSA 201425Z AUTO 07007KT 9999 ///////// 03/M04 Q1018 W06/H5

Tijdstip: 15:45 (14:45 UTC)


TAF: ontbreekt

Waarnemingen en weersverwachtingen van meer dan 4000 vliegvelden (METAR en TAF).

De beschikbare stations zijn de gele en rode punten op de kaart.

Ga met uw muis naar het station om de naam te zien.

Klik dan om waarnemingen en weersverwachtingen te zien.

kaart wijzigen: klik op de groene knoppen met een zwart kruis om in te zoomen, op de groene knop met een streepje om uit te zoomen of op de groene pijlen voor aangrenzende kaarten.


METAR-TAF: